カタログに戻る

STARLINK-3575

運用中通信VLEO
NORAD 51878·PAYLOAD·🇺🇸 United States

打ち上げ Mar 3, 2022 から Cape Canaveral Space Force Station

Loading…

次のパス (今後24時間)

TLE

最新Source: CelesTrak SupGP

元期: Sep 14, 2026, 21:19 UTC

1 51878C 22022AC  26257.88868056  .00038987  00000+0  11155-2 0  2574
2 51878  53.1572 230.5060 0001298  94.6544 243.9480 15.35379061    13

AllMySatでSTARLINK-3575をリアルタイム追跡

Download on the App Store